Location: ??????
(42.0089°N, 44.3281°E)
Time: 02:50:03
(UTC+00:00)

ISS - Visible Passes

Search period start: 19 January 2022 00:00
Search period end: 29 January 2022 00:00
Orbit: 413 x 423 km, 51.6° (Epoch: 18 January)

Date Brightness Start Highest point End Pass type
(mag) Time Alt. Az. Time Alt. Az. Time Alt. Az.
19 Jan -3.0 14:53:31 10° SSW 14:56:36 37° SE 14:58:47 17° ENE visible
19 Jan -1.1 16:30:21 10° W 16:31:44 20° WNW 16:31:44 20° WNW visible
20 Jan -3.1 15:42:07 10° WSW 15:45:21 47° NNW 15:45:55 42° N visible
21 Jan -3.7 14:54:01 10° WSW 14:57:21 76° NNW 15:00:02 15° NE visible
21 Jan -0.9 16:31:58 10° WNW 16:32:58 15° NW 16:32:58 15° NW visible
22 Jan -2.1 15:43:33 10° WNW 15:46:22 25° NNW 15:47:02 23° N visible
23 Jan -2.5 14:55:10 10° W 14:58:14 33° NNW 15:01:03 12° NE visible
23 Jan -0.7 16:33:35 10° NW 16:33:59 12° NW 16:33:59 12° NW visible
24 Jan -1.7 15:45:10 10° NW 15:47:30 17° N 15:47:57 17° N visible
25 Jan -1.8 14:56:41 10° WNW 14:59:17 20° NNW 15:01:52 10° NE visible
25 Jan -0.6 16:34:46 10° NW 16:34:50 10° NW 16:34:50 10° NW visible
26 Jan -1.6 15:46:34 10° NW 15:48:40 16° N 15:48:46 16° N visible
27 Jan -1.6 14:58:12 10° NW 15:00:23 16° N 15:02:34 10° NE visible
27 Jan -0.7 16:35:28 10° NW 16:35:37 11° NW 16:35:37 11° NW visible
28 Jan -1.7 15:47:27 10° NW 15:49:34 17° N 15:49:34 17° N visible
